#timestamp,LO_Frequency,Hit,StdDev 
1641787215.1,286047000.3,N
1641787235.9,286047000.5,N
1641787255.7,286047001.2,N
1641787275.5,286047000.5,N
1641787295.4,286046998.2,N
1641787315.2,286046998.9,N
1641787335.0,286046996.9,Y
1641787335.9,286046996.9,P
1641787355.8,286046998.9,N
1641787375.6,286046998.4,N
1641787395.5,286046998.9,N
1641787415.3,286047000.9,N
1641787435.1,286047002.8,N
1641787455.9,286046999.8,N
1641787475.7,286046999.8,N
1641787495.5,286047001.3,N
1641787515.4,286047002.7,N
1641787535.2,286047000.1,N
1641787555.1,286047002.7,N
1641787556.0,286047002.7,N
1641787575.8,286047002.5,N
1641787595.6,286047002.5,N
1641787615.5,286047002.6,N
1641787635.3,286046999.7,N
1641787655.1,286047000.2,N
1641787675.9,286047000.5,N
1641787695.7,286047002.8,N
1641787715.6,286047002.2,N
1641787735.4,286047002.4,N
1641787755.2,286046999.8,N
1641787775.1,286047001.7,N
1641787776.0,286047001.7,N
1641787795.8,286046999.7,N
1641787815.7,286047002.5,N
1641787835.5,286047000.4,N
1641787855.3,286047002.7,N
1641787875.2,286047002.3,N
1641787895.0,286047002.4,N
1641787895.9,286047002.4,N
1641787915.7,286047000.3,N
1641787935.6,286047000.6,N
1641787955.4,286047001.9,N
1641787975.3,286047004.1,Y
1641787995.1,286047000.6,P
1641787996.0,286047000.6,N
1641788015.8,286047000.9,N
1641788035.7,286047000.9,N
1641788055.5,286047000.6,N
1641788075.3,286047000.6,N
1641788095.2,286047001.6,Y
1641788115.0,286046998.2,P
1641788115.9,286046998.2,N
1641788135.8,286046999.5,N
1641788155.6,286047000.9,N
1641788175.4,286047000.5,N
1641788195.3,286046998.5,N
1641788215.1,286046998.4,N
1641788235.9,286046998.3,N
1641788255.7,286047001.2,N
1641788275.5,286046999.4,N
1641788295.4,286046997.0,N
1641788315.2,286046997.3,N
1641788335.0,286046996.8,N
1641788335.9,286046996.8,N
1641788355.8,286046997.1,N
1641788375.6,286046997.9,N
1641788395.5,286046995.1,Y
1641788415.3,286046999.0,P
1641788465.2,286046998.7,E
1641788475.1,286046998.6,N
1641788476.0,286046998.6,P
1641788495.8,286047000.9,P
1641788515.7,286046998.5,N
1641788535.5,286047001.1,N
1641788555.3,286047000.2,N
1641788575.2,286047000.6,N
1641788595.0,286046999.9,N
1641788595.9,286046999.9,N
1641788615.8,286047000.2,N
1641788635.6,286046999.7,N
1641788655.4,286047000.2,N
1641788675.3,286047000.4,N
1641788695.1,286047000.5,N
1641788715.8,286047000.3,N
1641788735.7,286047000.9,N
1641788755.5,286047001.0,N
1641788775.4,286047000.8,N
1641788795.2,286047000.8,N
1641788815.0,286046998.5,N
1641788815.9,286046998.5,N
1641788835.8,286046998.5,N
1641788855.6,286046998.5,N
1641788875.4,286046998.8,N
1641788895.3,286046998.9,N
1641788915.1,286047001.0,N
1641788935.9,286046999.8,N
1641788955.7,286047000.3,N
1641788975.5,286046999.9,N
1641788995.4,286047002.4,N
1641789015.2,286046999.7,N
1641789035.0,286047002.6,N
1641789035.9,286047002.6,N
1641789055.8,286047000.2,N
1641789075.6,286047000.4,N
1641789095.5,286047000.0,N
1641789115.3,286047000.0,N
1641789135.1,286047000.1,N
1641789155.9,286047000.0,N
1641789175.7,286047000.2,N
1641789195.5,286046999.9,N
1641789215.4,286047000.6,N
1641789235.2,286047002.3,N
1641789255.1,286047002.5,N
1641789256.0,286047002.5,N
1641789275.8,286047001.6,N
1641789295.6,286046999.7,N
1641789315.5,286046999.7,N
1641789335.3,286046999.7,N
1641789355.2,286047000.4,N
1641789375.9,286047000.5,N
1641789395.7,286047000.2,N
1641789415.6,286047002.3,N
1641789435.4,286047000.2,N
1641789455.2,286046999.9,N
1641789475.1,286046999.8,N
1641789476.0,286046999.8,N
1641789495.8,286047002.2,N
1641789515.7,286047001.6,N
1641789535.5,286047002.7,N
1641789555.3,286047002.1,N
1641789575.2,286047002.6,N
1641789595.0,286047002.0,N
1641789595.9,286047002.0,N
1641789615.7,286047002.3,N
1641789635.6,286047000.2,N
1641789655.4,286047000.0,N
1641789675.3,286046999.9,N
1641789695.1,286047002.8,N
1641789715.8,286047002.4,N
1641789735.7,286047002.6,N
1641789755.5,286047002.2,N
1641789775.4,286046999.7,N
1641789795.2,286046999.7,N
1641789815.0,286047002.5,N
1641789815.9,286047002.5,N
1641789835.8,286047000.5,N
1641789855.6,286047002.7,N
1641789875.4,286047002.4,N
1641789895.3,286047001.8,N
1641789915.1,286047002.2,N
1641789935.9,286047001.3,N
1641789955.7,286046999.9,N
1641789975.5,286047002.7,N
1641789995.4,286047000.1,N
1641790015.2,286047001.0,N
1641790035.1,286047000.9,N
1641790036.0,286047000.9,N
1641790055.8,286047000.7,N
1641790075.6,286047000.6,N
1641790095.5,286047001.9,N
1641790115.3,286046999.7,N
1641790135.1,286047002.8,N
1641790155.9,286047003.8,Y
1641790175.7,286047002.8,P
1641790195.6,286047002.5,P
1641790215.4,286046999.9,N
1641790235.3,286047005.7,Y
1641790255.1,286047002.0,P
1641790256.0,286047002.0,P
1641790275.8,286047002.6,P
1641790295.7,286046998.2,Y
1641790315.5,286046999.3,P
1641790335.3,286046996.8,N
1641790355.2,286046997.7,N
1641790375.0,286046995.0,N
1641790375.9,286046995.0,N
1641790395.8,286046997.7,N
1641790415.6,286046997.3,N
1641790435.4,286046997.1,N
1641790455.3,286046997.6,N
1641790475.1,286046996.7,N
1641790495.8,286046997.5,N
1641790515.7,286046997.1,N
1641790535.5,286046997.7,N
1641790555.4,286046995.6,N
1641790575.2,286046997.5,N
1641790595.0,286046997.9,N
1641790595.9,286046997.9,N
1641790615.8,286046995.2,Y
1641790635.6,286046998.5,P
1641790655.5,286047001.2,N
1641790675.3,286047001.2,N
1641790695.1,286046998.4,N
1641790715.9,286046998.9,N
1641790735.7,286046999.6,N
1641790755.5,286046997.0,N
1641790775.4,286046999.1,N
1641790795.2,286046997.7,N
